"2009-09-13 00:00:00",1235808,1.994,55.72,10.46,1.283,7.563,102.641,6.04,7.212,93.7,0,110,13.48,6.81,17.7
"2009-09-13 00:00:30",1235809,0.953,85.9,13.76,0.964,6.934,102.6376,6.032,7.226,93.7,0,110,13.49,6.80,47.9
"2009-09-13 00:01:00",1235810,0.886,76.12,7.094,0.113,5.72,102.6348,6.024,7.055,93.5,0,110,13.52,6.80,38.1
"2009-09-13 00:01:30",1235811,0.995,84.5,12.05,0.537,6.504,102.6303,6.013,7.186,93.7,0,110,13.49,6.79,46.5
"2009-09-13 00:02:00",1235812,1.979,87.4,7.469,1.215,7.613,102.6255,6.001,7.083,93.6,0,110,13.49,6.77,49.4
"2009-09-13 00:02:30",1235813,1.744,102.3,8.47,1.101,7.153,102.6164,5.978,7.206,93.7,0,110,13.49,6.75,64.3
"2009-09-13 00:03:00",1235814,1.843,104.1,9.08,1.076,7.869,102.6125,5.967,7.212,93.7,0,110,13.49,6.74,66.1
"2009-09-13 00:03:30",1235815,2.577,82.9,8.7,1.364,8.84,102.6111,5.964,7.23,93.7,0,110,13.49,6.74,44.9
"2009-09-13 00:04:00",1235816,2.455,84.8,10.32,1.224,8.67,102.6111,5.964,7.198,93.7,0,110,13.49,6.74,46.8
"2009-09-13 00:04:30",1235817,2.702,91.1,9.65,1.291,8.54,102.6111,5.964,7.181,93.7,0,110,13.5,6.74,53.1
"2009-09-13 00:05:00",1235818,1.477,95.7,6.523,0.174,5.994,102.6111,5.964,7.017,93.5,0,110,13.53,6.74,57.7
"2009-09-13 00:05:30",1235819,1.826,106.2,6.321,0.959,6.172,102.6111,5.964,7.024,93.6,0,110,13.5,6.74,68.2
"2009-09-13 00:06:00",1235820,2.59,113.8,9.52,1.372,8.17,102.6094,5.959,7.119,93.6,0,109.9,13.5,6.73,75.8
"2009-09-13 00:06:30",1235821,1.733,113.2,9.15,0.951,7.128,102.6037,5.945,7.077,93.6,0,109.9,13.5,6.72,75.2
"2009-09-13 00:07:00",1235822,1.718,123.6,12.55,1.191,7.337,102.6003,5.936,7.045,93.6,0,109.9,13.5,6.71,85.6
"2009-09-13 00:07:30",1235823,2.658,104.6,9,1.368,8.97,102.5899,5.91,7.139,93.7,0,109.9,13.5,6.68,66.6
"2009-09-13 00:08:00",1235824,3.216,102,7.054,1.075,10.52,102.5896,5.909,7.18,93.7,0,109.9,13.5,6.68,64.0
"2009-09-13 00:08:30",1235825,1.292,89.2,4.578,0.465,6.77,102.5873,5.903,7.072,93.6,0,110,13.5,6.68,51.2
"2009-09-13 00:09:00",1235826,1.059,102.4,6.479,0.544,6.29,102.5783,5.88,6.992,93.6,0,109.9,13.5,6.65,64.4
"2009-09-13 00:09:30",1235827,1.944,119.7,10.3,1.276,7.771,102.5774,5.878,7.107,93.7,0,109.9,13.5,6.65,81.7
"2009-09-13 00:10:00",1235828,1.288,103.1,4.922,0.842,6.478,102.5771,5.877,7.107,93.7,0,109.9,13.5,6.65,65.1
"2009-09-13 00:10:30",1235829,0.952,106.3,7.175,0.128,5.589,102.5771,5.877,6.933,93.5,0,109.9,13.53,6.65,68.3
"2009-09-13 00:11:00",1235830,1.314,121.2,6.609,0.808,6.091,102.5771,5.877,6.96,93.5,0,109.9,13.5,6.65,83.2
"2009-09-13 00:11:30",1235831,2.381,111.8,11.43,1.212,8.75,102.5771,5.877,7.13,93.7,0,109.9,13.5,6.65,73.8
"2009-09-13 00:12:00",1235832,3.096,139,6.69,1.221,9.2,102.5729,5.866,7.116,93.7,0,109.9,13.5,6.64,101.0
"2009-09-13 00:12:30",1235833,2.122,134.6,5.812,1.129,8.12,102.5672,5.852,7.098,93.7,0,109.9,13.5,6.62,96.6
"2009-09-13 00:13:00",1235834,2.42,131.9,6.704,1.171,8.08,102.5503,5.809,7.041,93.6,0,109.9,13.5,6.58,93.9
"2009-09-13 00:13:30",1235835,1.806,127.1,3.313,0.804,6.147,102.5435,5.791,6.975,93.6,0,109.9,13.5,6.56,89.1
"2009-09-13 00:14:00",1235836,2.682,133.1,7.147,1.304,8.16,102.5432,5.791,6.967,93.5,0,109.9,13.5,6.56,95.1
"2009-09-13 00:14:30",1235837,1.516,130.2,0.949,0.04,5.973,102.5432,5.791,6.888,93.4,0,109.9,13.53,6.56,92.2
"2009-09-13 00:15:00",1235838,2.566,138.5,7.497,1.258,8.32,102.5432,5.791,7.017,93.5,0,109.9,13.49,6.56,100.5
"2009-09-13 00:15:30",1235839,2.426,139.1,7.117,1.233,8.42,102.5421,5.788,6.982,93.5,0,109.9,13.49,6.56,101.1
"2009-09-13 00:16:00",1235840,2.588,140.9,7.515,1.213,8.69,102.5365,5.773,7.08,93.6,0,110,13.49,6.55,102.9
"2009-09-13 00:16:30",1235841,2.375,142,5.745,1.198,8.48,102.5291,5.754,7.058,93.5,0,109.9,13.49,6.53,104.0
"2009-09-13 00:17:00",1235842,2.595,143.2,7.509,1.236,8.14,102.5164,5.722,6.862,93.3,0,109.9,13.49,6.49,105.2
"2009-09-13 00:17:30",1235843,2.644,145.9,7.164,1.32,8.2,102.5099,5.705,6.973,93.5,0,109.9,13.49,6.48,107.9
"2009-09-13 00:18:00",1235844,1.498,140.1,1.145,0.055,6.31,102.5093,5.704,6.859,93.3,0,109.9,13.52,6.48,102.1
"2009-09-13 00:18:30",1235845,1.494,140.8,2.402,0.049,6.422,102.5093,5.704,6.805,93.3,0,109.9,13.52,6.48,102.8
"2009-09-13 00:19:00",1235846,2.608,143.5,7.126,1.216,8.72,102.5093,5.704,6.914,93.4,0,109.9,13.49,6.48,105.5
"2009-09-13 00:19:30",1235847,2.297,141.6,6.076,1.16,8.42,102.5093,5.704,6.954,93.4,0,109.9,13.49,6.48,103.6
"2009-09-13 00:20:00",1235848,3.41,150.8,4.554,1.105,10.24,102.5093,5.704,6.941,93.3,0,109.9,13.5,6.48,112.8
"2009-09-13 00:20:30",1235849,1.869,142.7,4.662,0.884,6.762,102.5065,5.697,6.815,93.2,0,109.9,13.5,6.47,104.7
"2009-09-13 00:21:00",1235850,1.889,141.8,6.84,1.114,7.48,102.5023,5.686,6.847,93.2,0,109.9,13.5,6.46,103.8
"2009-09-13 00:21:30",1235851,2.311,141.1,7.161,1.292,8.04,102.4991,5.678,6.916,93.3,0,109.9,13.5,6.45,103.1
"2009-09-13 00:22:00",1235852,0.998,139.3,5.743,0.054,5.994,102.4958,5.669,6.738,93.1,0,109.9,13.5,6.44,101.3
"2009-09-13 00:22:30",1235853,1.964,147.3,5.098,1.248,7.543,102.4864,5.645,6.865,93.2,0,109.9,13.5,6.42,109.3
"2009-09-13 00:23:00",1235854,1.523,141.2,5.932,0.915,6.912,102.4813,5.632,6.864,93.2,0,109.9,13.5,6.40,103.2
"2009-09-13 00:23:30",1235855,2.195,144.9,6.178,1.336,8.07,102.4782,5.625,6.732,93.1,0,109.9,13.5,6.40,106.9
"2009-09-13 00:24:00",1235856,2.03,141.4,6.68,1.257,8.17,102.4771,5.622,6.863,93.2,0,109.9,13.5,6.39,103.4
"2009-09-13 00:24:30",1235857,2.327,139.5,5.339,1.263,8.65,102.4757,5.618,6.869,93.2,0,109.9,13.5,6.39,101.5
"2009-09-13 00:25:00",1235858,1.267,138.4,5.172,0.515,6.685,102.4754,5.617,6.845,93.1,0,109.9,13.53,6.39,100.4
"2009-09-13 00:25:30",1235859,2.749,143.8,8.66,1.33,8.42,102.4754,5.617,6.79,93.1,0,109.9,13.5,6.39,105.8
"2009-09-13 00:26:00",1235860,1.731,137,4.923,1.046,7.244,102.4754,5.617,6.851,93.1,0,109.9,13.5,6.39,99.0
"2009-09-13 00:26:30",1235861,1.756,142.9,5.259,1.049,7.24,102.4754,5.617,6.798,93.1,0,109.9,13.5,6.39,104.9
"2009-09-13 00:27:00",1235862,2.132,147.5,7.187,1.317,7.601,102.4754,5.617,6.764,93,0,109.9,13.5,6.39,109.5
"2009-09-13 00:27:30",1235863,1.12,143.3,3.134,0.034,6.487,102.4754,5.617,6.88,93.1,0,109.9,13.53,6.39,105.3
"2009-09-13 00:28:00",1235864,2.032,145.9,6.545,1.295,7.814,102.4754,5.617,6.731,93,0,109.9,13.5,6.39,107.9
"2009-09-13 00:28:30",1235865,1.006,145.1,4.531,0.224,6.785,102.4754,5.617,6.913,93.1,0,109.9,13.53,6.39,107.1
"2009-09-13 00:29:00",1235866,2.223,153.2,5.984,1.249,8.09,102.4754,5.617,6.73,92.9,0,109.9,13.5,6.39,115.2
"2009-09-13 00:29:30",1235867,1.426,146.7,5.645,0.85,7.112,102.4754,5.617,6.862,93,0,109.9,13.5,6.39,108.7
"2009-09-13 00:30:00",1235868,1.12,145.2,1.484,0.065,5.986,102.4754,5.617,6.805,93,0,109.9,13.53,6.39,107.2
"2009-09-13 00:30:30",1235869,2.799,153.8,6.653,1.253,9.22,102.4754,5.617,6.847,93,0,109.9,13.5,6.39,115.8
"2009-09-13 00:31:00",1235870,2.203,150.9,6.448,1.258,8.48,102.4754,5.617,6.839,93,0,109.9,13.5,6.39,112.9
"2009-09-13 00:31:30",1235871,0.839,146.8,3.874,0.071,5.925,102.4754,5.617,6.696,92.8,0,109.9,13.53,6.39,108.8
"2009-09-13 00:32:00",1235872,1.936,145.7,4.651,1.298,8.01,102.4754,5.617,6.823,92.9,0,109.9,13.5,6.39,107.7
"2009-09-13 00:32:30",1235873,0.967,141.6,3.546,0.048,5.973,102.4754,5.617,6.778,92.9,0,109.9,13.53,6.39,103.6
"2009-09-13 00:33:00",1235874,2.231,141,6.345,1.292,7.874,102.4757,5.618,6.748,92.8,0,109.9,13.5,6.39,103.0
"2009-09-13 00:33:30",1235875,1.342,136.9,4.457,0.66,6.638,102.4754,5.617,6.833,92.9,0,109.9,13.5,6.39,98.9
"2009-09-13 00:34:00",1235876,2.161,141.7,5.913,1.198,7.398,102.4754,5.617,6.707,92.7,0,109.9,13.5,6.39,103.7
"2009-09-13 00:34:30",1235877,2.741,143.8,8.08,1.216,8.96,102.4754,5.617,6.863,92.9,0,109.9,13.5,6.39,105.8
"2009-09-13 00:35:00",1235878,3.177,148.2,6.495,1.202,9.56,102.4754,5.617,6.876,92.9,0,109.9,13.5,6.39,110.2
"2009-09-13 00:35:30",1235879,1.311,137.4,2.869,0.091,6.171,102.4757,5.618,6.685,92.6,0,109.9,13.53,6.39,99.4
"2009-09-13 00:36:00",1235880,2.086,142.3,4.539,1.104,7.688,102.4754,5.617,6.825,92.7,0,109.9,13.5,6.39,104.3
"2009-09-13 00:36:30",1235881,1.694,140.3,3.936,0.658,6.21,102.4754,5.617,6.769,92.7,0,109.9,13.5,6.39,102.3
"2009-09-13 00:37:00",1235882,1.756,139.6,3.717,0.101,6.102,102.4746,5.615,6.681,92.6,0,109.9,13.53,6.39,101.6
"2009-09-13 00:37:30",1235883,2.86,142,6.47,1.205,8.59,102.4715,5.607,6.844,92.7,0,109.9,13.5,6.38,104.0
"2009-09-13 00:38:00",1235884,1.529,132.6,2.461,0.137,6.543,102.4687,5.6,6.68,92.5,0,109.9,13.54,6.37,94.6
"2009-09-13 00:38:30",1235885,3.21,144,5.978,1.317,9.74,102.465,5.591,6.885,92.7,0,109.9,13.5,6.36,106.0
"2009-09-13 00:39:00",1235886,3.266,137.5,8.55,1.197,9.46,102.4641,5.589,6.824,92.6,0,109.9,13.5,6.36,99.5
"2009-09-13 00:39:30",1235887,2.06,134.8,8.17,1.135,7.411,102.4599,5.578,6.689,92.4,0,109.9,13.5,6.35,96.8
"2009-09-13 00:40:00",1235888,1.452,138.1,4.528,0.868,6.809,102.4591,5.576,6.792,92.5,0,109.9,13.5,6.35,100.1
"2009-09-13 00:40:30",1235889,1.839,131.6,6.956,1.151,6.505,102.4565,5.569,6.635,92.3,0,109.9,13.5,6.34,93.6
"2009-09-13 00:41:00",1235890,1.429,127.7,3.663,0.921,5.639,102.4588,5.575,6.641,92.3,0,109.9,13.5,6.35,89.7
"2009-09-13 00:41:30",1235891,1.611,125,4.084,0.901,7.125,102.4582,5.573,6.81,92.4,0,109.9,13.51,6.34,87.0
"2009-09-13 00:42:00",1235892,1.981,124.8,8.38,1.168,7.538,102.4546,5.564,6.645,92.2,0,109.9,13.51,6.34,86.8
"2009-09-13 00:42:30",1235893,2.813,130.1,6.773,1.255,9.13,102.452,5.558,6.847,92.4,0,109.9,13.5,6.33,92.1
"2009-09-13 00:43:00",1235894,2.856,126.6,7.044,1.196,9.93,102.452,5.558,6.844,92.4,0,109.9,13.5,6.33,88.6
"2009-09-13 00:43:30",1235895,1.138,121.7,7.205,0.132,5.899,102.4489,5.55,6.637,92.1,0,109.9,13.54,6.32,83.7
"2009-09-13 00:44:00",1235896,2.209,130.5,5.746,1.258,7.29,102.4458,5.542,6.676,92.2,0,109.9,13.5,6.31,92.5
"2009-09-13 00:44:30",1235897,2.314,128.3,6.95,1.282,7.912,102.4429,5.534,6.769,92.2,0,109.9,13.5,6.31,90.3
"2009-09-13 00:45:00",1235898,1.508,121.9,1.305,0.049,6.023,102.4438,5.537,6.627,92.1,0,109.9,13.54,6.31,83.9
"2009-09-13 00:45:30",1235899,2.575,128.8,7.176,1.241,8.68,102.4444,5.538,6.799,92.2,0,109.9,13.51,6.31,90.8
"2009-09-13 00:46:00",1235900,1.889,127.7,4.862,1.004,7.057,102.4456,5.541,6.724,92.1,0,109.9,13.51,6.31,89.7
"2009-09-13 00:46:30",1235901,3.293,132.8,6.052,1.18,9.56,102.4441,5.537,6.813,92.2,0,110,13.51,6.31,94.8
"2009-09-13 00:47:00",1235902,2.741,130.1,7.628,1.283,8.63,102.445,5.54,6.838,92.2,0,109.9,13.5,6.31,92.1
"2009-09-13 00:47:30",1235903,1.431,119.9,2.9,0.051,6.152,102.4456,5.541,6.619,91.9,0,109.9,13.53,6.31,81.9
"2009-09-13 00:48:00",1235904,2.363,118.2,6.333,1.243,7.722,102.449,5.55,6.708,92,0,109.9,13.5,6.32,80.2
"2009-09-13 00:48:30",1235905,2.325,119.5,6.253,1.172,7.949,102.4458,5.542,6.768,92,0,109.9,13.5,6.31,81.5
"2009-09-13 00:49:00",1235906,1.24,118,1.092,0.034,6.069,102.4479,5.547,6.663,91.9,0,109.9,13.53,6.32,80.0
"2009-09-13 00:49:30",1235907,2.412,123.5,5.222,1.244,8.4,102.4479,5.547,6.748,92,0,109.9,13.5,6.32,85.5
"2009-09-13 00:50:00",1235908,2.091,130,6.547,1.216,8.37,102.4467,5.544,6.777,92,0,109.9,13.5,6.32,92.0
"2009-09-13 00:50:30",1235909,2.814,139.9,6.943,1.224,9.16,102.4473,5.546,6.814,92,0,109.9,13.5,6.32,101.9
"2009-09-13 00:51:00",1235910,2.979,144.3,6.008,1.145,9.43,102.4473,5.546,6.822,92,0,109.9,13.5,6.32,106.3
"2009-09-13 00:51:30",1235911,1.019,139.5,2.2,0.03,5.857,102.4473,5.546,6.629,91.8,0,109.9,13.53,6.32,101.5
"2009-09-13 00:52:00",1235912,1.807,153.4,6.746,1.187,7.442,102.449,5.55,6.763,91.9,0,109.9,13.5,6.32,115.4
"2009-09-13 00:52:30",1235913,1.254,150.1,4.059,0.86,6.463,102.4464,5.543,6.757,91.9,0,109.8,13.5,6.31,112.1
"2009-09-13 00:53:00",1235914,1.387,151.1,5.029,1.016,6.635,102.4482,5.548,6.627,91.7,0,109.9,13.5,6.32,113.1
"2009-09-13 00:53:30",1235915,0.891,151.3,1.847,0.04,5.74,102.4487,5.549,6.631,91.7,0,109.9,13.54,6.32,113.3
"2009-09-13 00:54:00",1235916,2.135,158.4,8.67,1.274,8.51,102.4484,5.548,6.807,91.9,0,109.9,13.51,6.32,120.4
"2009-09-13 00:54:30",1235917,1.834,159.6,8.01,1.213,8.57,102.4504,5.554,6.757,91.8,0,109.9,13.51,6.32,121.6
"2009-09-13 00:55:00",1235918,1.453,163.6,7.759,1.129,7.85,102.4553,5.566,6.805,91.9,0,109.9,13.51,6.34,125.6
"2009-09-13 00:55:30",1235919,1.717,165.5,7.763,1.201,8.16,102.4579,5.572,6.832,91.9,0,109.9,13.51,6.34,127.5
"2009-09-13 00:56:00",1235920,1.796,166.3,6.039,1.191,7.177,102.4581,5.573,6.654,91.7,0,109.9,13.51,6.34,128.3
"2009-09-13 00:56:30",1235921,1.354,171.2,5.421,0.879,6.888,102.4613,5.581,6.789,91.8,0,109.9,13.51,6.35,133.2
"2009-09-13 00:57:00",1235922,1.647,170.1,5.475,1.012,6.666,102.4689,5.601,6.669,91.7,0,109.9,13.51,6.37,132.1
"2009-09-13 00:57:30",1235923,1.161,166.5,1.035,0.034,5.91,102.4708,5.606,6.65,91.6,0,109.9,13.54,6.38,128.5
"2009-09-13 00:58:00",1235924,1.181,166.6,1.807,0.043,6.036,102.4748,5.616,6.708,91.7,0,109.9,13.54,6.39,128.6
"2009-09-13 00:58:30",1235925,3.013,174.3,6.135,1.124,9.88,102.4754,5.617,6.874,91.8,0,109.9,13.51,6.39,136.3
"2009-09-13 00:59:00",1235926,2.731,173.8,8.13,1.285,9.71,102.4759,5.619,6.877,91.8,0,109.9,13.51,6.39,135.8
"2009-09-13 00:59:30",1235927,1.043,170.8,1.065,0.04,6.565,102.4771,5.622,6.664,91.6,0,109.9,13.54,6.39,132.8
"2009-09-13 01:00:00",1235928,2.132,176.8,7.273,1.289,8.3,102.4789,5.626,6.813,91.8,0,109.9,13.51,6.40,138.8
"2009-09-13 01:00:30",1235929,1.941,177.6,7.158,1.16,7.737,102.4803,5.63,6.755,91.7,0,109.9,13.51,6.40,139.6
"2009-09-13 01:01:00",1235930,2.119,178.6,7.819,1.225,7.904,102.4799,5.629,6.804,91.7,0,109.9,13.51,6.40,140.6
"2009-09-13 01:01:30",1235931,1.123,174.3,1.406,0.464,5.757,102.4785,5.625,6.667,91.6,0,109.9,13.51,6.40,136.3
"2009-09-13 01:02:00",1235932,0.975,174.6,0.612,0.031,5.852,102.4802,5.63,6.663,91.6,0,109.9,13.54,6.40,136.6
"2009-09-13 01:02:30",1235933,1.454,176.2,5.359,1.033,7.071,102.4831,5.637,6.768,91.6,0,109.9,13.51,6.41,138.2
"2009-09-13 01:03:00",1235934,2.736,181.9,6.844,1.156,10.57,102.4823,5.635,6.91,91.8,0,109.9,13.51,6.41,143.9
"2009-09-13 01:03:30",1235935,1.593,175,6.612,1.155,8.4,102.4823,5.635,6.79,91.6,0,109.9,13.51,6.41,137.0
"2009-09-13 01:04:00",1235936,0.757,173.1,2.26,0.045,6.698,102.4811,5.632,6.675,91.5,0,109.9,13.54,6.40,135.1
"2009-09-13 01:04:30",1235937,1.95,182.7,6.627,1.255,8.68,102.4826,5.636,6.736,91.5,0,109.9,13.5,6.41,144.7
"2009-09-13 01:05:00",1235938,2.235,185.9,7.096,1.206,9.44,102.4823,5.635,6.928,91.7,0,109.9,13.5,6.41,147.9
"2009-09-13 01:05:30",1235939,1.004,177.2,5.258,0.784,6.588,102.4812,5.632,6.829,91.6,0,109.9,13.5,6.40,139.2
"2009-09-13 01:06:00",1235940,0.856,176.2,1.683,0.057,5.221,102.4823,5.635,6.685,91.4,0,109.9,13.54,6.41,138.2
"2009-09-13 01:06:30",1235941,0.869,181.8,1.687,0.043,5.344,102.4835,5.638,6.677,91.4,0,109.9,13.54,6.41,143.8
"2009-09-13 01:07:00",1235942,0.844,183.1,1.201,0.062,5.778,102.4832,5.637,6.681,91.4,0,109.9,13.5,6.41,145.1
"2009-09-13 01:07:30",1235943,2.046,189.9,7.605,1.292,8.66,102.4835,5.638,6.938,91.7,0,109.9,13.5,6.41,151.9
"2009-09-13 01:08:00",1235944,1.482,191.1,5.69,1.15,8.4,102.4838,5.639,6.771,91.5,0,109.9,13.5,6.41,153.1
"2009-09-13 01:08:30",1235945,0.563,181.4,3.314,0.061,7.184,102.484,5.639,6.773,91.5,0,109.9,13.54,6.41,143.4
"2009-09-13 01:09:00",1235946,0.87,186.4,6.313,0.794,6.898,102.4826,5.636,6.698,91.4,0,109.9,13.51,6.41,148.4
"2009-09-13 01:09:30",1235947,1.712,180.2,8.28,1.273,9.02,102.4858,5.644,6.929,91.6,0,109.9,13.51,6.42,142.2
"2009-09-13 01:10:00",1235948,1.183,177.4,6.368,1.075,7.706,102.4855,5.643,6.881,91.5,0,109.9,13.51,6.41,139.4
"2009-09-13 01:10:30",1235949,1.167,173,5.247,1.043,6.757,102.4864,5.645,6.721,91.3,0,109.9,13.51,6.42,135.0
"2009-09-13 01:11:00",1235950,0.587,164.9,3.705,0.056,5.289,102.4866,5.646,6.685,91.3,0,109.9,13.55,6.42,126.9
"2009-09-13 01:11:30",1235951,0.513,177.3,4.313,0.06,5.833,102.4866,5.646,6.68,91.3,0,109.9,13.55,6.42,139.3
"2009-09-13 01:12:00",1235952,1.537,193.5,10.2,1.263,7.917,102.488,5.65,6.843,91.5,0,109.9,13.51,6.42,155.5
"2009-09-13 01:12:30",1235953,0.235,177.2,3.205,0.066,6.24,102.4892,5.653,6.742,91.4,0,109.9,13.55,6.42,139.2
"2009-09-13 01:13:00",1235954,1.456,196.8,14.04,1.274,8.43,102.4918,5.659,6.859,91.5,0,109.9,13.51,6.43,158.8
"2009-09-13 01:13:30",1235955,-0.036,218.1,10.3,0.034,5.76,102.4903,5.655,6.747,91.4,0,109.9,13.55,6.43,180.1
"2009-09-13 01:14:00",1235956,0.013,259.2,7.886,0.231,5.398,102.4909,5.657,6.694,91.3,0,109.9,13.51,6.43,221.2
"2009-09-13 01:14:30",1235957,1.143,292.7,9.91,1.279,7.441,102.4975,5.674,6.822,91.4,0,109.9,13.51,6.45,254.7
"2009-09-13 01:15:00",1235958,0.572,295.6,6.673,1,6.217,102.4955,5.669,6.704,91.3,0,109.9,13.51,6.44,257.6
"2009-09-13 01:15:30",1235959,0.298,295.3,1.209,0.466,5.632,102.4969,5.672,6.804,91.4,0,109.9,13.51,6.44,257.3
"2009-09-13 01:16:00",1235960,1.571,308.9,6,1.293,7.286,102.4977,5.674,6.771,91.3,0,109.9,13.51,6.45,270.9
"2009-09-13 01:16:30",1235961,0.278,290.3,6.839,0.044,5.016,102.4968,5.672,6.704,91.3,0,109.9,13.55,6.44,252.3
"2009-09-13 01:17:00",1235962,0.215,285,5.24,0.04,5.073,102.498,5.675,6.712,91.3,0,109.9,13.55,6.45,247.0
"2009-09-13 01:17:30",1235963,0.151,276.5,7.644,0.034,5.404,102.4963,5.671,6.711,91.3,0,109.9,13.55,6.44,238.5
"2009-09-13 01:18:00",1235964,0.149,249.1,15.07,0.066,5.587,102.4989,5.677,6.709,91.3,0,109.9,13.55,6.45,211.1
"2009-09-13 01:18:30",1235965,0.253,215.8,4.341,0.479,5.733,102.496,5.67,6.769,91.3,0,109.9,13.52,6.44,177.8
"2009-09-13 01:19:00",1235966,1.777,211.5,9.84,1.295,8.92,102.4989,5.677,6.866,91.4,0,109.9,13.52,6.45,173.5
"2009-09-13 01:19:30",1235967,0.508,193.9,5.789,0.781,7.178,102.4997,5.679,6.869,91.4,0,109.9,13.51,6.45,155.9
"2009-09-13 01:20:00",1235968,2.263,206,7.591,1.047,9.97,102.4977,5.674,6.827,91.4,0,109.9,13.51,6.45,168.0
"2009-09-13 01:20:30",1235969,0.506,198.9,3.765,0.868,7.276,102.4974,5.674,6.857,91.4,0,109.9,13.51,6.45,160.9
"2009-09-13 01:21:00",1235970,0.695,183,9.01,1.036,7.082,102.4983,5.676,6.703,91.3,0,109.9,13.51,6.45,145.0
"2009-09-13 01:21:30",1235971,0.157,191.9,7.208,0.028,5.619,102.4977,5.674,6.725,91.3,0,109.9,13.54,6.45,153.9
"2009-09-13 01:22:00",1235972,1.24,204.9,6.6,1.307,7.419,102.5017,5.685,6.88,91.5,0,109.9,13.51,6.46,166.9
"2009-09-13 01:22:30",1235973,-0.044,183.9,7.254,0.056,6.155,102.5014,5.684,6.83,91.4,0,109.9,13.54,6.46,145.9
"2009-09-13 01:23:00",1235974,0.037,185,4.698,0.035,5.673,102.5051,5.693,6.734,91.4,0,109.9,13.54,6.47,147.0
"2009-09-13 01:23:30",1235975,-0.011,190.5,3.169,0.023,5.074,102.5138,5.716,6.732,91.3,0,109.9,13.54,6.49,152.5
"2009-09-13 01:24:00",1235976,-0.016,201.9,2.897,0.024,5.168,102.5175,5.725,6.746,91.3,0,109.9,13.54,6.50,163.9
"2009-09-13 01:24:30",1235977,-0.008,200.1,5.871,0.479,5.57,102.5203,5.732,6.733,91.3,0,109.9,13.51,6.50,162.1
"2009-09-13 01:25:00",1235978,0.486,182.3,8.86,1.036,7.9,102.5238,5.741,6.903,91.5,0,109.9,13.51,6.51,144.3
"2009-09-13 01:25:30",1235979,0.527,172.1,8.61,1.039,6.663,102.5246,5.743,6.751,91.3,0,109.9,13.51,6.52,134.1
"2009-09-13 01:26:00",1235980,-0.027,174.9,9.56,0.041,5.868,102.5283,5.752,6.761,91.3,0,109.9,13.55,6.52,136.9
"2009-09-13 01:26:30",1235981,0.469,172.6,6.546,1.054,6.343,102.5317,5.761,6.763,91.4,0,109.9,13.52,6.53,134.6
"2009-09-13 01:27:00",1235982,1.777,153,12.57,1.179,9.17,102.5334,5.765,6.984,91.6,0,109.9,13.52,6.54,115.0
"2009-09-13 01:27:30",1235983,0.307,122.1,6.565,0.778,6.253,102.534,5.767,6.877,91.5,0,109.9,13.52,6.54,84.1
"2009-09-13 01:28:00",1235984,0.048,109.4,3.247,0.011,4.985,102.5331,5.765,6.766,91.4,0,109.9,13.55,6.54,71.4
"2009-09-13 01:28:30",1235985,0.002,97.1,3.883,0.032,4.959,102.534,5.767,6.777,91.4,0,109.9,13.55,6.54,59.1
"2009-09-13 01:29:00",1235986,-0.019,74.11,10.18,0.014,4.95,102.5342,5.768,6.79,91.3,0,109.9,13.55,6.54,36.1
"2009-09-13 01:29:30",1235987,0.836,54.81,7.598,1.247,6.858,102.5345,5.768,6.926,91.5,0,109.9,13.52,6.54,16.8
"2009-09-13 01:30:00",1235988,0.61,42.34,9.08,0.987,5.83,102.5331,5.765,6.793,91.3,0,109.9,13.52,6.54,4.3
"2009-09-13 01:30:30",1235989,0.228,28.98,4.794,0.057,5.095,102.5322,5.762,6.795,91.4,0,109.9,13.55,6.53,351.0
"2009-09-13 01:31:00",1235990,0.314,29.92,5.048,0.059,5.158,102.5334,5.765,6.795,91.3,0,109.9,13.55,6.54,351.9
"2009-09-13 01:31:30",1235991,1.411,18.68,8.66,1.274,7.617,102.5345,5.768,6.884,91.4,0,109.9,13.52,6.54,340.7
"2009-09-13 01:32:00",1235992,1.533,8.24,5.879,1.297,8.05,102.5337,5.766,6.953,91.5,0,109.9,13.52,6.54,330.2
"2009-09-13 01:32:30",1235993,0.61,1.228,6.013,0.814,7.03,102.5345,5.768,6.909,91.4,0,109.9,13.52,6.54,323.2
"2009-09-13 01:33:00",1235994,1.234,355.8,7.224,1.023,7.248,102.5328,5.764,6.905,91.4,0,109.9,13.52,6.54,317.8
"2009-09-13 01:33:30",1235995,1.941,355.4,7.035,1.265,8.78,102.5348,5.769,7.055,91.5,0,109.9,13.52,6.54,317.4
"2009-09-13 01:34:00",1235996,2.134,355.3,6.961,1.27,8.44,102.5328,5.764,6.906,91.4,0,109.9,13.52,6.54,317.3
"2009-09-13 01:34:30",1235997,1.892,351.7,6.819,1.256,7.467,102.5328,5.764,6.852,91.3,0,109.9,13.51,6.54,313.7
"2009-09-13 01:35:00",1235998,2.196,352.9,5.93,1.303,8.27,102.5345,5.768,6.967,91.4,0,109.9,13.51,6.54,314.9
"2009-09-13 01:35:30",1235999,1.094,344.2,1.335,0.058,5.761,102.5322,5.762,6.844,91.3,0,109.9,13.55,6.53,306.2
"2009-09-13 01:36:00",1236000,1.262,345.9,4.033,0.673,6.354,102.5354,5.77,6.943,91.4,0,109.9,13.51,6.54,307.9
"2009-09-13 01:36:30",1236001,2.454,350.7,7.225,1.286,7.967,102.5356,5.771,6.84,91.3,0,109.9,13.51,6.54,312.7
"2009-09-13 01:37:00",1236002,1.311,333.6,7.329,0.931,6.956,102.5359,5.772,6.972,91.4,0,109.9,13.51,6.54,295.6
"2009-09-13 01:37:30",1236003,1.658,343.1,3.982,1.067,6.927,102.5348,5.769,6.839,91.3,0,109.9,13.51,6.54,305.1
"2009-09-13 01:38:00",1236004,1.731,347.9,4.977,1.077,6.486,102.5357,5.771,6.844,91.3,0,109.9,13.51,6.54,309.9
"2009-09-13 01:38:30",1236005,2.357,346,5.531,1.23,7.674,102.5405,5.784,7.024,91.4,0,109.9,13.51,6.56,308.0
"2009-09-13 01:39:00",1236006,3.039,347.4,6.258,1.285,8.93,102.545,5.795,6.995,91.4,0,109.9,13.51,6.57,309.4
"2009-09-13 01:39:30",1236007,1.429,339.8,1.788,0.054,6.263,102.5462,5.798,6.838,91.2,0,109.9,13.55,6.57,301.8
"2009-09-13 01:40:00",1236008,1.996,345.4,6.543,1.054,7.294,102.551,5.81,6.994,91.4,0,109.9,13.51,6.58,307.4
"2009-09-13 01:40:30",1236009,3.033,348.8,6.196,1.171,8.87,102.5512,5.811,6.983,91.4,0,109.9,13.51,6.58,310.8
"2009-09-13 01:41:00",1236010,2.128,344.1,6.418,1.176,7.873,102.5521,5.813,6.986,91.3,0,109.9,13.51,6.59,306.1
"2009-09-13 01:41:30",1236011,1.093,335.1,1.291,0.039,5.5,102.5541,5.818,6.876,91.2,0,109.9,13.55,6.59,297.1
"2009-09-13 01:42:00",1236012,0.946,332.4,1.52,0.066,5.112,102.5578,5.828,6.848,91.2,0,109.9,13.55,6.60,294.4
"2009-09-13 01:42:30",1236013,0.838,323.3,2.81,0.027,5.498,102.5572,5.826,6.844,91.1,0,109.9,13.55,6.60,285.3
"2009-09-13 01:43:00",1236014,2.734,330.3,6.361,1.15,9.68,102.5549,5.82,7.033,91.3,0,109.9,13.51,6.59,292.3
"2009-09-13 01:43:30",1236015,2.078,326.3,5.788,1.294,8.76,102.5577,5.828,7.03,91.3,0,109.9,13.51,6.60,288.3
"2009-09-13 01:44:00",1236016,0.708,316,3.399,0.041,5.765,102.564,5.844,6.847,91.1,0,109.9,13.55,6.62,278.0
"2009-09-13 01:44:30",1236017,0.723,314.7,0.821,0.023,5.496,102.5649,5.846,6.877,91.2,0,109.9,13.55,6.62,276.7
"2009-09-13 01:45:00",1236018,2.524,323.3,5.873,1.097,9.12,102.5631,5.841,7.087,91.4,0,109.9,13.51,6.61,285.3
"2009-09-13 01:45:30",1236019,1.911,320.3,6.558,1.283,8.26,102.564,5.844,7.015,91.3,0,109.9,13.51,6.62,282.3
"2009-09-13 01:46:00",1236020,0.751,313.4,2.154,0.057,5.354,102.5694,5.857,6.861,91.2,0,109.9,13.55,6.63,275.4
"2009-09-13 01:46:30",1236021,0.828,319.7,1.57,0.029,5.37,102.5723,5.865,6.853,91.2,0,109.9,13.55,6.64,281.7
"2009-09-13 01:47:00",1236022,0.945,322.1,1.659,0.077,5.634,102.5728,5.866,6.855,91.2,0,109.9,13.55,6.64,284.1
"2009-09-13 01:47:30",1236023,2.551,321,6.207,1.351,8.6,102.5702,5.859,7.05,91.4,0,109.9,13.51,6.63,283.0
"2009-09-13 01:48:00",1236024,2.767,325.1,6.33,1.151,9.73,102.5705,5.86,7.09,91.4,0,109.9,13.51,6.63,287.1
"2009-09-13 01:48:30",1236025,1.794,323.8,4.352,1.162,7.415,102.5705,5.86,6.858,91.2,0,109.9,13.51,6.63,285.8
"2009-09-13 01:49:00",1236026,1.863,323.7,6.592,1.21,7.57,102.5716,5.863,6.967,91.3,0,109.9,13.51,6.64,285.7
"2009-09-13 01:49:30",1236027,2.737,328,6.806,1.153,9.52,102.5713,5.862,7.1,91.4,0,109.9,13.51,6.63,290.0